Regional Weather Roundup
Issued by NWS

Home | Current Version | Previous Version | Text Only | Print | Product List | Glossary Off
Versions: 1 2 3 4 5 6 7 8 9 10 11 12 13 14 15 16 17 18 19 20 21 22 23 24 25 26 27 28 29 30 31 32 33 34 35 36 37 38 39 40 41 42 43 44 45 46 47 48 49 50

000
ASUS43 KLMK 281502
RWRKY
KENTUCKY REGIONAL WEATHER ROUNDUP
NATIONAL WEATHER SERVICE LOUISVILLE KY
1100 AM EDT TUE APR 28 2015

NOTE "FAIR" INDICATES FEW OR NO CLOUDS BELOW 12,000 FEET
WITH NO SIGNIFICANT WEATHER AND/OR OBSTRUCTIONS TO VISIBILITY.

KYZ001>023-026-027-061>063-070>075-281600-
WESTERN AND SOUTH CENTRAL KENTUCKY

CITY           SKY/WX    TMP DP  RH WIND       PRES   REMARKS
PADUCAH        MOSUNNY   57  39  51 NE15      30.06S
HENDERSON      SUNNY     54  37  54 NE12      30.09S
OWENSBORO      SUNNY     54  40  59 NE8       30.09F
HOPKINSVILLE   MOSUNNY   55  41  60 NE13      30.04S
BOWLING GREEN  SUNNY     56  40  55 E9        30.06R
GLASGOW        NOT AVBL
$$

KYZ024-025-028>034-038-045-046-053-281600-
NORTH CENTRAL KENTUCKY

CITY           SKY/WX    TMP DP  RH WIND       PRES   REMARKS
LOUISVILLE/SDF MOSUNNY   55  35  47 E13G20    30.10F
LOUISVILLE/LOU SUNNY     54  35  48 NE12      30.11S
FORT KNOX      SUNNY     53  35  49 NE12      30.06F
$$

KYZ035>037-039>044-047>052-055>060-089>105-281600-
NORTHEAST KENTUCKY

CITY           SKY/WX    TMP DP  RH WIND       PRES   REMARKS
LEXINGTON      SUNNY     52  37  56 NE15      30.09F
COVINGTON      MOSUNNY   53  36  52 NE9G17    30.12S
FRANKFORT      SUNNY     52  36  54 E13       30.09F
$$

KYZ054-064>069-076>088-106>120-281600-
SOUTHEAST KENTUCKY

CITY           SKY/WX    TMP DP  RH WIND       PRES   REMARKS
JACKSON        SUNNY     52  33  48 VRB5      30.07S
LONDON         SUNNY     54  35  48 MISG      30.04F
SOMERSET       NOT AVBL
MIDDLESBORO    SUNNY     56  39  53 E3        30.03S
MONTICELLO     SUNNY     56  41  57 NE10      30.06F
$$




USA.gov is the U.S. government's official web portal to all federal, state and local government web resources and services.